Regional Weather Roundup
Issued by NWS

Home | Current Version | Previous Version | Text Only | Print | Product List | Glossary On
Versions: 1 2 3 4 5 6 7 8 9 10 11 12 13 14 15 16 17 18 19 20 21 22 23 24 25 26 27 28 29 30 31 32 33 34 35 36 37 38 39 40 41 42 43 44 45 46 47 48 49 50
000
ASUS43 KMKX 161021
RWRWI

WISCONSIN REGIONAL WEATHER ROUNDUP
NATIONAL WEATHER SERVICE MILWAUKEE/SULLIVAN WI
500 AM CDT TUE SEP 16 2014

NOTE: "FAIR" INDICATES FEW OR NO CLOUDS BELOW 12,000 FEET WITH NO
SIGNIFICANT WEATHER AND/OR OBSTRUCTIONS TO VISIBILITY.

WIZ001-002-006>008-014>016-023>028-161100-
NORTHWEST WISCONSIN

CITY           SKY/WX    TMP DP  RH WIND       PRES   REMARKS
SUPERIOR ARPT  CLEAR     39  37  91 SW7       30.12S WCI  34
ASHLAND        PTCLDY    44  37  76 SW9       30.13F
HAYWARD        CLEAR     33  31  92 CALM      30.16F
SIREN          CLEAR     43  39  83 SW6       30.16F
RICE LAKE      CLEAR     35  34  97 CALM      30.20S
LADYSMITH      CLEAR     35  34  96 CALM      30.19S
EAU CLAIRE     CLEAR     39  36  89 SW6       30.20S WCI  35
MENOMONIE      SUNNY     38  37  97 CALM      30.21R
NEW RICHMOND   CLEAR     40  39  98 S5        30.20S
OSCEOLA        CLEAR     37  37 100 CALM      30.22S
$$

WIZ003>005-009-010-017-018-161100-
NORTH CENTRAL WISCONSIN

CITY           SKY/WX    TMP DP  RH WIND       PRES   REMARKS
WOODRUFF       CLEAR     37  33  88 CALM      30.15S
RHINELANDER    CLEAR     31  30  96 W6        30.16S WCI  25
EAGLE RIVER    CLEAR     32  32 100 CALM      30.14S
LAND O LAKES   CLEAR     29  28  99 CALM      30.14F
PHILLIPS       CLEAR     33  33 100 CALM      30.16S
TOMAHAWK       CLEAR     31  30  97 CALM      30.17S
MEDFORD        CLEAR     37  36  96 SW3       30.18S
MERRILL        MOCLDY    32  32  99 CALM      30.18S
$$

WIZ029-030-035-036-043>047-161100-
CENTRAL WISCONSIN

CITY           SKY/WX    TMP DP  RH WIND       PRES   REMARKS
WAUSAU         CLEAR     38  36  92 CALM      30.17S
MOSINEE        CLEAR     36  36 100 W5        30.19S WCI  32
MARSHFIELD     CLEAR     39  36  89 W7        30.19R WCI  34
STEVENS POINT  CLEAR     32  31  96 CALM      30.20R
WAUPACA        CLEAR     40  38  95 CALM      30.19S
WAUTOMA        CLEAR     34  33  96 CALM      30.21S
WISC RAPIDS    CLEAR     36  35  96 CALM      30.21S FOG
CAMP DOUGLAS   CLEAR     34  34 100 CALM      30.21R
$$

WIZ011>013-019>022-031-037>040-048>050-161100-
NORTHEAST WISCONSIN

CITY           SKY/WX    TMP DP  RH WIND       PRES   REMARKS
ANTIGO         CLEAR     32  32  99 CALM      30.17S
STURGEON BAY   CLEAR     43  39  87 SW3       30.16S
GREEN BAY      CLEAR     39  38  96 W5        30.18R
MANITOWOC      CLEAR     42  40  92 CALM      30.18S
APPLETON       CLEAR     39  37  93 W9        30.19S WCI  33
CLINTONVILLE   CLEAR     37  36  93 CALM      30.18S
OSHKOSH        CLEAR     43  40  89 W7        30.19S
$$

WIZ032>034-041-042-053>061-161100-
SOUTHWEST WISCONSIN

CITY           SKY/WX    TMP DP  RH WIND       PRES   REMARKS
LA CROSSE      FOG       46  44  93 S7        30.22S VSB 1/2
SPARTA         CLOUDY    33  33 100 CALM      30.23S FOG
VIROQUA        FAIR      41  41 100 SW3       30.22S
BOSCOBEL       FOG       44  43  96 CALM      30.23F VSB 1/4
PRAIRIE DU CHI DRZL/FOG  42  40  96 CALM      30.23F VSB 1/4
PLATTEVILLE      N/A     38  37  97 CALM      30.23S VSB 1/4
$$

WIZ056-057-062-063-064-067-068-161100-
SOUTH CENTRAL WISCONSIN

CITY           SKY/WX    TMP DP  RH WIND       PRES   REMARKS
BARABOO/DELLS  CLEAR     38  37  97 CALM      30.21S FOG
LONE ROCK      HAZE      42  37  82 W3        30.23S VSB 1/2
WATERTOWN      CLEAR     37  37  99 CALM      30.19F
MADISON        CLEAR     39  37  92 CALM      30.22R
MIDDLETON        N/A     38  38 100 CALM      30.22S VSB 1/4
MONROE         CLEAR     45  41  87 NW7       30.21R
JANESVILLE     CLEAR     43  41  93 CALM      30.20S
$$

WIZ051-052-058>065-066-070>072-161100-
SOUTHEAST WISCONSIN

CITY           SKY/WX    TMP DP  RH WIND       PRES   REMARKS
MILWAUKEE      CLEAR     46  42  86 NW7       30.19S
WAUKESHA       CLEAR     41  41 100 NW3       30.20S
MILWAUKEE/TIMM CLEAR     41  39  93 CALM      30.20S
RACINE         CLEAR     45  42  89 NW7       30.20S
BURLINGTON     CLEAR     40  40  99 CALM      30.19S
KENOSHA        CLEAR     46  43  89 NW6       30.19S
FOND DU LAC    CLEAR     39  36  89 SW3       30.20S
SHEBOYGAN      CLEAR     40  38  93 NW3       30.18S
WEST BEND      CLEAR     41  37  87 CALM      30.19S
JUNEAU         FOG       38  38  99 CALM      30.21S VSB 1/2
$$

LSZ147-162-161100-
LAKE SUPERIOR

STATION/POSITION TIME  TEMP    WIND        PRES    WAVE
                       AIR SEA DIR/SP/G            HT/PER
                 (UTC) (F)     (DEG/KT/KT) (MB)    (FT/S)
W MID LAKE BUOY  0950   51 47  240/ 17/ 19 1017.7F   2/ 4
DEVILS ISLAND    1000   51     230/ 18/ 21 1018.7F
PORT WING        0940   47     190/  6/  9 1019.6F
SAXON HARBOR     0940   46     200/  5/ 11 1020.0F
$$

LMZ867-665-643>646-161100-
LAKE MICHIGAN

STATION/POSITION TIME  TEMP    WIND        PRES    WAVE
                       AIR SEA DIR/SP/G            HT/PER
                 (UTC) (F)     (DEG/KT/KT) (MB)    (FT/S)
N MID LAKE BUOY  0950   54 58  280/ 10/ 12 1020.3S   1/ 3
NORTHPORT PIER   0900   48     240/  3/  4 1020.3F
KEWAUNEE LAKESHO 0900   44     300/  4/  5 1020.3S
SHEBOYGAN LAKESH 1000   47 49  280/  8/ 10 1022.5R
PORT WASHINGTON  0900   47     290/  7/ 10 1022.4
ATWATER BUOY     1000   51     310/  8/ 10 1022.9S
MILWAUKEE LAKESH 0900   49     320/  7/  9   N/A
S MID LAKE BUOY  0950   58 64  330/ 10/ 12 1021.5F   1/ 3
KENOSHA   LAKESH 1000   48     320/  7/ 10 1022.0R
$$

TC  - TEMPERATURE IN CELSIUS
VSB - VISIBILITY IN STATUTE MILES
WCI - WIND CHILL INDEX
HX  - HEAT INDEX



USA.gov is the U.S. government's official web portal to all federal, state and local government web resources and services.